This is the latest recevied weather packets stored in our database for station/object W0SS-13. If no packets are shown the sender has not sent any weather packets the latest 1 day(s).
| Time | Temp. | Humidity | Pressure | Rain* | Wind** | Luminosity | Snow |
|---|---|---|---|---|---|---|---|
| 1778030601 | 10° C | 85% | 1013.2 hPa | 0 mm | - | 1 W/m² | - |
| 1778030298 | 10.56° C | 84% | 1012.9 hPa | 0 mm | - | 2 W/m² | - |
| 1778029994 | 10.56° C | 83% | 1013 hPa | 0 mm | - | 4 W/m² | - |
| 1778029692 | 10.56° C | 82% | 1013 hPa | 0 mm | - | 8 W/m² | - |
| 1778028783 | 11.11° C | 82% | 1012.9 hPa | 0 mm | - | 14 W/m² | - |
| 1778028479 | 10.56° C | 80% | 1012.7 hPa | 0 mm | - | 18 W/m² | - |
| 1778028177 | 11.11° C | 79% | 1013.1 hPa | 0 mm | - | 21 W/m² | - |
| 1778027873 | 11.11° C | 79% | 1012.8 hPa | 0 mm | - | 24 W/m² | - |
| 1778026962 | 11.11° C | 79% | 1013 hPa | 0 mm | - | 29 W/m² | - |
| 1778026658 | 11.11° C | 79% | 1013 hPa | 0 mm | - | 34 W/m² | - |
| 1778025750 | 11.11° C | 78% | 1012.5 hPa | 0 mm | - | 46 W/m² | - |
| 1778023630 | 11.67° C | 76% | 1012.6 hPa | 0 mm | - | 83 W/m² | - |
| 1778023024 | 11.67° C | 76% | 1012.6 hPa | 0 mm | - | 112 W/m² | - |
| 1778022117 | 11.11° C | 77% | 1012.8 hPa | 0 mm | - | 75 W/m² | - |
| 1778021510 | 11.11° C | 76% | 1012.8 hPa | 0 mm | - | 74 W/m² | - |
| 1778020904 | 11.67° C | 77% | 1012.6 hPa | 0 mm | - | 96 W/m² | - |
| 1778020297 | 11.11° C | 77% | 1012.7 hPa | 0 mm | - | 109 W/m² | - |
| 1778019993 | 11.11° C | 77% | 1012.5 hPa | 0 mm | - | 129 W/m² | - |
| 1778019083 | 11.11° C | 77% | 1012.8 hPa | 0 mm | - | 117 W/m² | - |
| 1778018781 | 11.11° C | 78% | 1012.8 hPa | 0 mm | - | 101 W/m² | - |
| 1778016966 | 10.56° C | 79% | 1012.7 hPa | 0 mm | - | 156 W/m² | - |
| 1778015450 | 10.56° C | 78% | 1012.9 hPa | 0 mm | - | 213 W/m² | - |
* Rain latest hour (hover to see other rain measurements)
** Current wind speed in m/s (hover to see current wind gust speed)